Flag for Switzerland Weather past 2 weeks in Bellinzona, Ticino, Switzerland

Now
78 °F

Warm.


Feels Like: 81 °F
Forecast: 61 / 85 °F
Wind: 2 mph from West

Location: Locarno-Magadino

Current Time: Aug 31, 2015 at 8:25:19 PM

Latest Report: Aug 31, 2015 at 7:00 PM


Visibility: N/A

Pressure: 29.96 "Hg

Humidity: 70%

Dew point: 68 °F

Location of BellinzonaLocation

Historic Weather in Bellinzona — Graph

°F

Bellinzona temperature yesterday

Maximum temperature yesterday: 87 °F (at 4:00 PM)
Minimum temperature yesterday: 61 °F (at 7:00 AM)
Average temperature yesterday: 73 °F

Past Weeks' High & Low Weather Summary

 TemperatureHumidityPressure
High87 °F (Aug 29, 5:00 PM)98% (Aug 19, 12:00 AM)30.22 "Hg (Aug 19, 12:00 AM)
Low52 °F (Aug 20, 7:00 AM)39% (Aug 20, 3:00 PM)29.73 "Hg (Aug 16, 7:00 PM)
Average69 °F76%30.02 "Hg
* Reported Aug 16 7:00 PM — Aug 31 7:00 PM, Bellinzona, Weather by CustomWeather, © 2015

Note: Actual official high and low records may vary slightly from our data, if they occured in-between our weather recording intervals... More about our weather records

Advertising

Bellinzona weather history for previous 24 hours

 ConditionsComfort  
Time TempWeatherWind HumidityBarometerVisibility
7:00 PM
Mon, Aug 31
78 °FWarm.2 mph70%29.96 "HgN/A
6:00 PM83 °FWarm.5 mph56%29.96 "HgN/A
5:00 PM84 °FWarm.7 mph48%29.97 "HgN/A
4:00 PM80 °FWarm.7 mph50%30.00 "HgN/A
3:00 PM83 °FWarm.6 mph47%30.01 "HgN/A
2:00 PM78 °FWarm.6 mph56%30.03 "HgN/A
1:00 PM77 °FWarm.3 mph49%30.05 "HgN/A
12:00 PM78 °FWarm.1 mph48%30.06 "HgN/A
11:00 AM75 °FMild.3 mph49%30.08 "HgN/A
10:00 AM72 °FMild.5 mph56%30.10 "HgN/A
9:00 AM67 °FMild.1 mph75%30.12 "HgN/A
8:00 AM61 °FCool.1 mph96%30.13 "HgN/A
7:00 AM59 °FCool.No wind97%30.13 "HgN/A
6:00 AM60 °FCool.1 mph94%30.13 "HgN/A
5:00 AM60 °FCool.1 mph97%30.14 "HgN/A
4:00 AM59 °FCool.1 mph98%30.15 "HgN/A
3:00 AM61 °FCool.1 mph97%30.14 "HgN/A
2:00 AM62 °FCool.No wind96%30.15 "HgN/A
1:00 AM63 °FMild.1 mph96%30.16 "HgN/A
12:00 AM64 °FMild.1 mph96%30.16 "HgN/A
10:00 PM
Sun, Aug 30
68 °FMild.1 mph92%30.14 "HgN/A
9:00 PM69 °FMild.1 mph91%30.12 "HgN/A
8:00 PM77 °FMild.1 mph68%30.09 "HgN/A
Weather by CustomWeather, © 2015

See weather overviewHow to use our weather pages